Weather History for Missoula, MT

Change the Weather History Date:

Thursday, January 17, 2013

  Actual Average Record
Temperature  
Mean Temperature 10 °F 26 °F  
Max Temperature 19 °F 33 °F 48 °F (1919)
Min Temperature 1 °F 19 °F -22 °F (1950)
Degree Days  
Heating Degree Days 55 39  
Month to date heating degree days 782 683  
Since 1 July heating degree days 3564 3855  
Cooling Degree Days 0 0  
Month to date cooling degree days 0 0  
Year to date cooling degree days 0 0  
Moisture  
Dew Point 9 °F    
Average Humidity 92    
Maximum Humidity 100    
Minimum Humidity 83    
Precipitation  
Precipitation 0.01 in 0.03 in 1.80 in (1894)
Month to date precipitation 0.83 0.50  
Year to date precipitation 0.83 0.50  
Snow  
Snow 0.10 in - - ()
Month to date snowfall 7.4  
Year to date snowfall 7.4  
Since 1 July snowfall 28.5  
Snow Depth 5.00 in    
Sea Level Pressure  
Sea Level Pressure 30.54 in    
Wind  
Wind Speed 1 mph (West)    
Max Wind Speed 6 mph    
Max Gust Speed 7 mph    
Visibility 3 miles    
Events Fog , Snow    
T = Trace of Precipitation, MM = Missing Value Source: NWS Daily Summary

Daily Weather History Graph

Daily Weather History Graph

Search for Another Location

Airport:

Trip Planner

Search our weather history database for the weather conditions in past years. The results will help you decide how hot, cold, wet, or windy it might be!

Date:

Astronomy

Jan. 17, 2013 Rise Set
Actual Time 8:15 AM MST 5:17 PM MST
Civil Twilight 7:41 AM MST 5:51 PM MST
Nautical Twilight 7:04 AM MST 6:29 PM MST
Astronomical Twilight 6:28 AM MST 7:05 PM MST
Moon 10:56 AM MST (1/17) No Moon Set
Length of Visible Light 10h 09m
Length of Day
9h 02m
Waxing Crescent, 38% of the Moon is Illuminated
Jan 17
Waxing Crescent
Jan 18
First Quarter
Jan 26
Full
Feb 3
Last Quarter
Feb 10
New

Hourly Weather History & Observations

Time (MST) Temp. Windchill Dew Point Humidity Pressure Visibility Wind Dir Wind Speed Gust Speed Precip Events Conditions
12:43 AM 5.0 °F -2.1 °F 1.4 °F 85% 30.53 in 2.5 mi West 3.5 mph - N/A   Partly Cloudy
12:53 AM 5.0 °F - 1.9 °F 87% 30.72 in 4.0 mi Calm Calm - N/A   Partly Cloudy
1:40 AM 6.8 °F - 1.4 °F 79% 30.53 in 1.5 mi Calm Calm - N/A   Partly Cloudy
1:42 AM 3.2 °F - 1.4 °F 92% 30.53 in 0.8 mi Calm Calm - N/A   Mist
1:53 AM 5.0 °F - 3.9 °F 95% 30.72 in 0.2 mi Calm Calm - N/A Fog Light Freezing Fog
2:28 AM 6.8 °F - 3.2 °F 85% 30.53 in 1.0 mi Calm Calm - N/A   Mist
2:30 AM 6.8 °F - 3.2 °F 85% 30.53 in 1.5 mi Calm Calm - N/A   Overcast
2:32 AM 6.8 °F - 3.2 °F 85% 30.53 in 3.0 mi Calm Calm - N/A   Overcast
2:43 AM 5.0 °F - 1.4 °F 85% 30.53 in 1.2 mi Calm Calm - N/A   Mostly Cloudy
2:45 AM 5.0 °F - 1.4 °F 85% 30.53 in 0.8 mi Calm Calm - N/A   Mist
2:53 AM 3.9 °F - 1.9 °F 91% 30.73 in 0.2 mi Calm Calm - N/A Fog Light Freezing Fog
3:53 AM 6.1 °F - 3.9 °F 91% 30.71 in 0.2 mi Calm Calm - N/A Fog Light Freezing Fog
4:27 AM 3.2 °F - 1.4 °F 92% 30.52 in 1.0 mi Calm Calm - N/A   Mist
4:31 AM 5.0 °F - 1.4 °F 85% 30.52 in 2.0 mi Calm Calm - N/A   Mostly Cloudy
4:41 AM 3.2 °F - -0.4 °F 85% 30.52 in 1.0 mi Calm Calm - N/A   Mist
4:47 AM 1.4 °F -6.2 °F -0.4 °F 92% 30.52 in 0.2 mi SW 3.5 mph - N/A Fog Light Freezing Fog
4:48 AM 1.0 °F -6.7 °F -0.9 °F 91% 30.72 in 0.2 mi WSW 3.5 mph - N/A Fog Light Freezing Fog
5:05 AM 3.2 °F - -0.4 °F 85% 30.52 in 1.0 mi Calm Calm - N/A   Mist
5:15 AM 3.2 °F - 1.4 °F 92% 30.52 in 0.5 mi Calm Calm - N/A Fog Light Freezing Fog
5:49 AM 6.8 °F -2.0 °F 3.2 °F 85% 30.52 in 1.2 mi NW 4.6 mph - N/A   Overcast
5:53 AM 7.0 °F -1.7 °F 3.9 °F 87% 30.71 in 0.5 mi NW 4.6 mph - N/A Fog Light Freezing Fog
6:11 AM 8.6 °F - 6.8 °F 92% 30.52 in 0.2 mi Calm Calm - N/A Fog Light Freezing Fog
6:53 AM 10.9 °F - 9.0 °F 92% 30.70 in 0.2 mi Calm Calm - N/A Fog Light Freezing Fog
7:53 AM 10.9 °F - 9.0 °F 92% 30.71 in 0.2 mi Calm Calm - 0.00 in Fog Light Freezing Fog
8:25 AM 10.4 °F 4.0 °F 10.4 °F 100% 30.52 in 0.2 mi South 3.5 mph - 0.00 in Fog , Snow Light Snow
8:53 AM 10.9 °F 2.9 °F 10.0 °F 96% 30.72 in 0.2 mi SE 4.6 mph - 0.00 in Fog Light Freezing Fog
9:29 AM 12.2 °F - 10.4 °F 92% 30.53 in 0.5 mi Calm Calm - N/A Fog Light Freezing Fog
9:53 AM 12.9 °F - 10.9 °F 92% 30.72 in 0.2 mi Calm Calm - N/A Fog Light Freezing Fog
10:19 AM 12.2 °F - 12.2 °F 100% 30.54 in 0.2 mi Calm Calm - N/A Fog Light Freezing Fog
10:34 AM 14.0 °F - 14.0 °F 100% 30.53 in 0.2 mi Calm Calm - N/A Fog Light Freezing Fog
10:53 AM 14.0 °F - 14.0 °F 100% 30.71 in 0.2 mi Calm Calm - N/A Fog Light Freezing Fog
11:07 AM 15.8 °F - 15.8 °F 100% 30.52 in 1.0 mi Calm Calm - 0.01 in   Overcast
11:27 AM 15.8 °F - 15.8 °F 100% 30.51 in 1.0 mi Calm Calm - 0.01 in   Overcast
11:30 AM 15.8 °F - 15.8 °F 100% 30.51 in 1.5 mi Calm Calm - 0.01 in   Overcast
11:35 AM 15.8 °F - 15.8 °F 100% 30.51 in 3.0 mi Calm Calm - 0.01 in   Overcast
11:37 AM 15.8 °F - 15.8 °F 100% 30.51 in 1.8 mi Calm Calm - 0.01 in   Overcast
11:39 AM 15.8 °F - 15.8 °F 100% 30.51 in 1.0 mi Calm Calm - 0.01 in   Overcast
11:46 AM 15.8 °F - 15.8 °F 100% 30.51 in 0.2 mi Calm Calm - 0.01 in Fog , Snow Light Snow
11:53 AM 15.1 °F - 15.1 °F 100% 30.69 in 0.5 mi Calm Calm - 0.01 in Fog , Snow Light Snow
12:05 PM 15.8 °F - 15.8 °F 100% 30.49 in 1.0 mi Calm Calm - N/A   Overcast
12:49 PM 15.8 °F - 15.8 °F 100% 30.47 in 0.5 mi Calm Calm - N/A Fog Light Freezing Fog
12:53 PM 15.1 °F - 15.1 °F 100% 30.66 in 0.5 mi Calm Calm - N/A Fog Light Freezing Fog
1:05 PM 15.8 °F - 15.8 °F 100% 30.46 in 0.5 mi Calm Calm - N/A Fog Light Freezing Fog
1:25 PM 15.8 °F - 15.8 °F 100% 30.44 in 1.2 mi Calm Calm - N/A   Mostly Cloudy
1:28 PM 15.8 °F - 15.8 °F 100% 30.44 in 2.0 mi Calm Calm - N/A   Mostly Cloudy
1:30 PM 15.8 °F - 15.8 °F 100% 30.44 in 0.8 mi Calm Calm - N/A Fog Light Freezing Fog
1:53 PM 16.0 °F - 16.0 °F 100% 30.61 in 0.5 mi Calm Calm - N/A Fog Light Freezing Fog
2:26 PM 17.6 °F - 15.8 °F 93% 30.40 in 3.0 mi Calm Calm - N/A   Scattered Clouds
2:53 PM 16.0 °F - 14.0 °F 92% 30.59 in 10.0 mi Calm Calm - N/A   Partly Cloudy
3:53 PM 17.1 °F - 14.0 °F 88% 30.56 in 10.0 mi Calm Calm - N/A   Clear
4:53 PM 17.1 °F - 14.0 °F 88% 30.56 in 10.0 mi Calm Calm - N/A   Clear
5:53 PM 15.1 °F - 12.0 °F 88% 30.55 in 6.0 mi Calm Calm - N/A   Clear
6:53 PM 15.1 °F - 12.0 °F 88% 30.52 in 8.0 mi Calm Calm - N/A   Clear
7:53 PM 14.0 °F - 10.9 °F 88% 30.51 in 6.0 mi Calm Calm - N/A   Clear
8:34 PM 10.4 °F - 6.8 °F 85% 30.33 in 6.0 mi Calm Calm - N/A   Scattered Clouds
8:40 PM 10.4 °F - 8.6 °F 92% 30.33 in 1.0 mi Calm Calm - N/A   Mist
8:48 PM 10.4 °F - 8.6 °F 92% 30.33 in 10.0 mi Calm Calm - N/A   Scattered Clouds
8:53 PM 10.9 °F - 8.1 °F 88% 30.51 in 10.0 mi Calm Calm - N/A   Scattered Clouds
9:12 PM 10.4 °F - 8.6 °F 92% 30.32 in 1.5 mi Calm Calm - N/A   Clear
9:19 PM 10.4 °F - 8.6 °F 92% 30.32 in 10.0 mi Calm Calm - N/A   Clear
9:31 PM 8.6 °F 2.0 °F 6.8 °F 92% 30.32 in 10.0 mi North 3.5 mph - N/A   Scattered Clouds
9:53 PM 10.0 °F - 7.0 °F 87% 30.50 in 10.0 mi Calm Calm - N/A   Partly Cloudy
10:53 PM 8.1 °F - 5.0 °F 87% 30.50 in 4.0 mi Calm Calm - N/A   Clear
11:53 PM 8.1 °F - 5.0 °F 87% 30.50 in 6.0 mi Calm Calm - N/A   Clear